Year,Month,Day,Hour,Minute,Value (Times are PST for temperature in C)
2016,04,18,00,00,12.10
2016,04,18,00,01,12.10
2016,04,18,00,02,12.20
2016,04,18,00,03,12.20
2016,04,18,00,04,12.20
2016,04,18,00,05,12.30
2016,04,18,00,06,12.30
2016,04,18,00,07,12.30
2016,04,18,00,08,12.30
2016,04,18,00,09,12.40
2016,04,18,00,10,12.40
2016,04,18,00,11,12.40
2016,04,18,00,12,12.40
2016,04,18,00,13,12.40
2016,04,18,00,14,12.40
2016,04,18,00,15,12.40
2016,04,18,00,16,12.40
2016,04,18,00,17,12.40
2016,04,18,00,18,12.40
2016,04,18,00,19,12.40
2016,04,18,00,20,12.40
2016,04,18,00,21,12.40
2016,04,18,00,22,12.40
2016,04,18,00,23,12.40
2016,04,18,00,24,12.40
2016,04,18,00,25,12.50
2016,04,18,00,26,12.50
2016,04,18,00,27,12.60
2016,04,18,00,28,12.60
2016,04,18,00,29,12.70
2016,04,18,00,30,12.70
2016,04,18,00,31,12.70
2016,04,18,00,32,12.70
2016,04,18,00,33,12.70
2016,04,18,00,34,12.70
2016,04,18,00,35,12.70
2016,04,18,00,36,12.80
2016,04,18,00,37,12.80
2016,04,18,00,38,12.80
2016,04,18,00,39,12.80
2016,04,18,00,40,12.80
2016,04,18,00,41,12.80
2016,04,18,00,42,12.80
2016,04,18,00,43,12.80
2016,04,18,00,44,12.80
2016,04,18,00,45,12.70
2016,04,18,00,46,12.70
2016,04,18,00,47,12.70
2016,04,18,00,48,12.70
2016,04,18,00,49,12.70
2016,04,18,00,50,12.60
2016,04,18,00,51,12.60
2016,04,18,00,52,12.60
2016,04,18,00,53,12.60
2016,04,18,00,54,12.60
2016,04,18,00,55,12.60
2016,04,18,00,56,12.50
2016,04,18,00,57,12.50
2016,04,18,00,58,12.50
2016,04,18,00,59,12.40
2016,04,18,01,00,12.40
2016,04,18,01,01,12.40
2016,04,18,01,02,12.30
2016,04,18,01,03,12.30
2016,04,18,01,04,12.30
2016,04,18,01,05,12.30
2016,04,18,01,06,12.30
2016,04,18,01,07,12.30
2016,04,18,01,08,12.30
2016,04,18,01,09,12.30
2016,04,18,01,10,12.30
2016,04,18,01,11,12.30
2016,04,18,01,12,12.30
2016,04,18,01,13,12.30
2016,04,18,01,14,12.30
2016,04,18,01,15,12.40
2016,04,18,01,16,12.30
2016,04,18,01,17,12.30
2016,04,18,01,18,12.30
2016,04,18,01,19,12.30
2016,04,18,01,20,12.30
2016,04,18,01,21,12.40
2016,04,18,01,22,12.40
2016,04,18,01,23,12.50
2016,04,18,01,24,12.50
2016,04,18,01,25,12.60
2016,04,18,01,26,12.60
2016,04,18,01,27,12.60
2016,04,18,01,28,12.50
2016,04,18,01,29,12.50
2016,04,18,01,30,12.40
2016,04,18,01,31,12.40
2016,04,18,01,32,12.40
2016,04,18,01,33,12.30
2016,04,18,01,34,12.30
2016,04,18,01,35,12.30
2016,04,18,01,36,12.20
2016,04,18,01,37,12.20
2016,04,18,01,38,12.20
2016,04,18,01,39,12.10
2016,04,18,01,40,12.10
2016,04,18,01,41,12.00
2016,04,18,01,42,12.00
2016,04,18,01,43,12.00
2016,04,18,01,44,12.00
2016,04,18,01,45,12.00
2016,04,18,01,46,12.10
2016,04,18,01,47,12.10
2016,04,18,01,48,12.10
2016,04,18,01,49,12.20
2016,04,18,01,50,12.20
2016,04,18,01,51,12.20
2016,04,18,01,52,12.20
2016,04,18,01,53,12.20
2016,04,18,01,54,12.20
2016,04,18,01,55,12.20
2016,04,18,01,56,12.20
2016,04,18,01,57,12.20
2016,04,18,01,58,12.20
2016,04,18,01,59,12.20
2016,04,18,02,00,12.20
2016,04,18,02,01,12.20
2016,04,18,02,02,12.20
2016,04,18,02,03,12.20
2016,04,18,02,04,12.20
2016,04,18,02,05,12.20
2016,04,18,02,06,12.20
2016,04,18,02,07,12.10
2016,04,18,02,08,12.10
2016,04,18,02,09,12.10
2016,04,18,02,10,12.10
2016,04,18,02,11,12.10
2016,04,18,02,12,12.10
2016,04,18,02,13,12.10
2016,04,18,02,14,12.10
2016,04,18,02,15,12.00
2016,04,18,02,16,12.00
2016,04,18,02,17,11.90
2016,04,18,02,18,11.90
2016,04,18,02,19,11.90
2016,04,18,02,20,11.90
2016,04,18,02,21,11.90
2016,04,18,02,22,11.90
2016,04,18,02,23,11.80
2016,04,18,02,24,11.80
2016,04,18,02,25,11.80
2016,04,18,02,26,11.80
2016,04,18,02,27,11.80
2016,04,18,02,28,11.80
2016,04,18,02,29,11.90
2016,04,18,02,30,11.90
2016,04,18,02,31,12.00
2016,04,18,02,32,12.00
2016,04,18,02,33,12.10
2016,04,18,02,34,12.10
2016,04,18,02,35,12.10
2016,04,18,02,36,12.10
2016,04,18,02,37,12.20
2016,04,18,02,38,12.10
2016,04,18,02,39,12.10
2016,04,18,02,40,12.10
2016,04,18,02,41,12.10
2016,04,18,02,42,12.10
2016,04,18,02,43,12.20
2016,04,18,02,44,12.20
2016,04,18,02,45,12.20
2016,04,18,02,46,12.20
2016,04,18,02,47,12.20
2016,04,18,02,48,12.10
2016,04,18,02,49,12.10
2016,04,18,02,50,12.00
2016,04,18,02,51,12.00
2016,04,18,02,52,11.90
2016,04,18,02,53,11.90
2016,04,18,02,54,11.90
2016,04,18,02,55,11.90
2016,04,18,02,56,11.90
2016,04,18,02,57,11.90
2016,04,18,02,58,11.90
2016,04,18,02,59,11.90
2016,04,18,03,00,11.80
2016,04,18,03,01,11.80
2016,04,18,03,02,11.70
2016,04,18,03,03,11.70
2016,04,18,03,04,11.60
2016,04,18,03,05,11.60
2016,04,18,03,06,11.60
2016,04,18,03,07,11.60
2016,04,18,03,08,11.60
2016,04,18,03,09,11.60
2016,04,18,03,10,11.60
2016,04,18,03,11,11.60
2016,04,18,03,12,11.60
2016,04,18,03,13,11.60
2016,04,18,03,14,11.60
2016,04,18,03,15,11.60
2016,04,18,03,16,11.50
2016,04,18,03,17,11.50
2016,04,18,03,18,11.50
2016,04,18,03,19,11.40
2016,04,18,03,20,11.40
2016,04,18,03,21,11.40
2016,04,18,03,22,11.40
2016,04,18,03,23,11.40
2016,04,18,03,24,11.30
2016,04,18,03,25,11.30
2016,04,18,03,26,11.30
2016,04,18,03,27,11.30
2016,04,18,03,28,11.30
2016,04,18,03,29,11.30
2016,04,18,03,30,11.30
2016,04,18,03,31,11.30
2016,04,18,03,32,11.30
2016,04,18,03,33,11.30
2016,04,18,03,34,11.30
2016,04,18,03,35,11.30
2016,04,18,03,36,11.30
2016,04,18,03,37,11.30
2016,04,18,03,38,11.30
2016,04,18,03,39,11.30
2016,04,18,03,40,11.30
2016,04,18,03,41,11.30
2016,04,18,03,42,11.30
2016,04,18,03,43,11.30
2016,04,18,03,44,11.30
2016,04,18,03,45,11.20
2016,04,18,03,46,11.20
2016,04,18,03,47,11.20
2016,04,18,03,48,11.20
2016,04,18,03,49,11.10
2016,04,18,03,50,11.10
2016,04,18,03,51,11.10
2016,04,18,03,52,11.10
2016,04,18,03,53,11.10
2016,04,18,03,54,11.10
2016,04,18,03,55,11.00
2016,04,18,03,56,11.00
2016,04,18,03,57,11.00
2016,04,18,03,58,10.90
2016,04,18,03,59,10.90
2016,04,18,04,00,10.90
2016,04,18,04,01,10.90
2016,04,18,04,02,10.80
2016,04,18,04,03,10.80
2016,04,18,04,04,10.80
2016,04,18,04,05,10.80
2016,04,18,04,06,10.70
2016,04,18,04,07,10.70
2016,04,18,04,08,10.70
2016,04,18,04,09,10.70
2016,04,18,04,10,10.70
2016,04,18,04,11,10.70
2016,04,18,04,12,10.70
2016,04,18,04,13,10.70
2016,04,18,04,14,10.60
2016,04,18,04,15,10.60
2016,04,18,04,16,10.60
2016,04,18,04,17,10.60
2016,04,18,04,18,10.60
2016,04,18,04,19,10.60
2016,04,18,04,20,10.60
2016,04,18,04,21,10.50
2016,04,18,04,22,10.50
2016,04,18,04,23,10.50
2016,04,18,04,24,10.40
2016,04,18,04,25,10.40
2016,04,18,04,26,10.40
2016,04,18,04,27,10.30
2016,04,18,04,28,10.30
2016,04,18,04,29,10.30
2016,04,18,04,30,10.30
2016,04,18,04,31,10.30
2016,04,18,04,32,10.30
2016,04,18,04,33,10.20
2016,04,18,04,34,10.20
2016,04,18,04,35,10.20
2016,04,18,04,36,10.20
2016,04,18,04,37,10.20
2016,04,18,04,38,10.10
2016,04,18,04,39,10.10
2016,04,18,04,40,10.10
2016,04,18,04,41,10.10
2016,04,18,04,42,10.10
2016,04,18,04,43,10.10
2016,04,18,04,44,10.10
2016,04,18,04,45,10.10
2016,04,18,04,46,10.10
2016,04,18,04,47,10.10
2016,04,18,04,48,10.10
2016,04,18,04,49,10.10
2016,04,18,04,50,10.10
2016,04,18,04,51,10.10
2016,04,18,04,52,10.10
2016,04,18,04,53,10.10
2016,04,18,04,54,10.20
2016,04,18,04,55,10.20
2016,04,18,04,56,10.20
2016,04,18,04,57,10.20
2016,04,18,04,58,10.30
2016,04,18,04,59,10.30
2016,04,18,05,00,10.40
2016,04,18,05,01,10.40
2016,04,18,05,02,10.50
2016,04,18,05,03,10.60
2016,04,18,05,04,10.70
2016,04,18,05,05,10.80
2016,04,18,05,06,10.80
2016,04,18,05,07,10.90
2016,04,18,05,08,11.00
2016,04,18,05,09,11.00
2016,04,18,05,10,11.10
2016,04,18,05,11,11.10
2016,04,18,05,12,11.20
2016,04,18,05,13,11.20
2016,04,18,05,14,11.20
2016,04,18,05,15,11.30
2016,04,18,05,16,11.30
2016,04,18,05,17,11.30
2016,04,18,05,18,11.30
2016,04,18,05,19,11.30
2016,04,18,05,20,11.30
2016,04,18,05,21,11.30
2016,04,18,05,22,11.40
2016,04,18,05,23,11.40
2016,04,18,05,24,11.60
2016,04,18,05,25,11.60
2016,04,18,05,26,11.70
2016,04,18,05,27,11.70
2016,04,18,05,28,11.70
2016,04,18,05,29,11.80
2016,04,18,05,30,11.90
2016,04,18,05,31,12.00
2016,04,18,05,32,12.10
2016,04,18,05,33,12.20
2016,04,18,05,34,12.20
2016,04,18,05,35,12.20
2016,04,18,05,36,12.20
2016,04,18,05,37,12.30
2016,04,18,05,38,12.30
2016,04,18,05,39,12.30
2016,04,18,05,40,12.30
2016,04,18,05,41,12.20
2016,04,18,05,42,12.20
2016,04,18,05,43,12.10
2016,04,18,05,44,12.10
2016,04,18,05,45,12.10
2016,04,18,05,46,12.10
2016,04,18,05,47,12.10
2016,04,18,05,48,12.10
2016,04,18,05,49,12.00
2016,04,18,05,50,12.00
2016,04,18,05,51,11.90
2016,04,18,05,52,11.90
2016,04,18,05,53,11.90
2016,04,18,05,54,11.80
2016,04,18,05,55,11.80
2016,04,18,05,56,11.80
2016,04,18,05,57,11.80
2016,04,18,05,58,11.80
2016,04,18,05,59,11.80
2016,04,18,06,00,11.70
2016,04,18,06,01,11.70
2016,04,18,06,02,11.70
2016,04,18,06,03,11.60
2016,04,18,06,04,11.60
2016,04,18,06,05,11.60
2016,04,18,06,06,11.60
2016,04,18,06,07,11.50
2016,04,18,06,08,11.40
2016,04,18,06,09,11.40
2016,04,18,06,10,11.40
2016,04,18,06,11,11.30
2016,04,18,06,12,11.30
2016,04,18,06,13,11.30
2016,04,18,06,14,11.20
2016,04,18,06,15,11.20
2016,04,18,06,16,11.20
2016,04,18,06,17,11.20
2016,04,18,06,18,11.10
2016,04,18,06,19,11.10
2016,04,18,06,20,11.10
2016,04,18,06,21,11.10
2016,04,18,06,22,11.00
2016,04,18,06,23,11.00
2016,04,18,06,24,10.90
2016,04,18,06,25,10.90
2016,04,18,06,26,10.90
2016,04,18,06,27,10.80
2016,04,18,06,28,10.80
2016,04,18,06,29,10.80
2016,04,18,06,30,10.70
2016,04,18,06,31,10.70
2016,04,18,06,32,10.70
2016,04,18,06,33,10.70
2016,04,18,06,34,10.70
2016,04,18,06,35,10.70
2016,04,18,06,36,10.70
2016,04,18,06,37,10.70
2016,04,18,06,38,10.70
2016,04,18,06,39,10.70
2016,04,18,06,40,10.70
2016,04,18,06,41,10.70
2016,04,18,06,42,10.70
2016,04,18,06,43,10.70
2016,04,18,06,44,10.70
2016,04,18,06,45,10.70
2016,04,18,06,46,10.70
2016,04,18,06,47,10.70
2016,04,18,06,48,10.60
2016,04,18,06,49,10.60
2016,04,18,06,50,10.60
2016,04,18,06,51,10.60
2016,04,18,06,52,10.50
2016,04,18,06,53,10.60
2016,04,18,06,54,10.50
2016,04,18,06,55,10.50
2016,04,18,06,56,10.50
2016,04,18,06,57,10.50
2016,04,18,06,58,10.50
2016,04,18,06,59,10.50
2016,04,18,07,00,10.50
2016,04,18,07,01,10.60
2016,04,18,07,02,10.60
2016,04,18,07,03,10.60
2016,04,18,07,04,10.50
2016,04,18,07,05,10.50
2016,04,18,07,06,10.60
2016,04,18,07,07,10.60
2016,04,18,07,08,10.60
2016,04,18,07,09,10.60
2016,04,18,07,10,10.60
2016,04,18,07,11,10.60
2016,04,18,07,12,10.70
2016,04,18,07,13,10.70
2016,04,18,07,14,10.70
2016,04,18,07,15,10.80
2016,04,18,07,16,10.80
2016,04,18,07,17,10.80
2016,04,18,07,18,10.90
2016,04,18,07,19,11.00
2016,04,18,07,20,11.00
2016,04,18,07,21,11.10
2016,04,18,07,22,11.20
2016,04,18,07,23,11.20
2016,04,18,07,24,11.30
2016,04,18,07,25,11.30
2016,04,18,07,26,11.30
2016,04,18,07,27,11.40
2016,04,18,07,28,11.40
2016,04,18,07,29,11.50
2016,04,18,07,30,11.60
2016,04,18,07,31,11.60
2016,04,18,07,32,11.70
2016,04,18,07,33,11.70
2016,04,18,07,34,11.80
2016,04,18,07,35,11.80
2016,04,18,07,36,11.90
2016,04,18,07,37,11.90
2016,04,18,07,38,12.00
2016,04,18,07,39,12.10
2016,04,18,07,40,12.10
2016,04,18,07,41,12.10
2016,04,18,07,42,12.20
2016,04,18,07,43,12.20
2016,04,18,07,44,12.30
2016,04,18,07,45,12.30
2016,04,18,07,46,12.30
2016,04,18,07,47,12.40
2016,04,18,07,48,12.40
2016,04,18,07,49,12.40
2016,04,18,07,50,12.40
2016,04,18,07,51,12.50
2016,04,18,07,52,12.50
2016,04,18,07,53,12.60
2016,04,18,07,54,12.60
2016,04,18,07,55,12.70
2016,04,18,07,56,12.70
2016,04,18,07,57,12.80
2016,04,18,07,58,12.80
2016,04,18,07,59,12.90
2016,04,18,08,00,12.90
2016,04,18,08,01,13.00
2016,04,18,08,02,13.00
2016,04,18,08,03,13.10
2016,04,18,08,04,13.10
2016,04,18,08,05,13.10
2016,04,18,08,06,13.10
2016,04,18,08,07,13.10
2016,04,18,08,08,13.20
2016,04,18,08,09,13.20
2016,04,18,08,10,13.20
2016,04,18,08,11,13.20
2016,04,18,08,12,13.20
2016,04,18,08,13,13.20
2016,04,18,08,14,13.20
2016,04,18,08,15,13.20
2016,04,18,08,16,13.20
2016,04,18,08,17,13.20
2016,04,18,08,18,13.10
2016,04,18,08,19,13.10
2016,04,18,08,20,13.10
2016,04,18,08,21,13.10
2016,04,18,08,22,13.10
2016,04,18,08,23,13.10
2016,04,18,08,24,13.10
2016,04,18,08,25,13.10
2016,04,18,08,26,13.10
2016,04,18,08,27,13.20
2016,04,18,08,28,13.20
2016,04,18,08,29,13.30
2016,04,18,08,30,13.30
2016,04,18,08,31,13.40
2016,04,18,08,32,13.40
2016,04,18,08,33,13.50
2016,04,18,08,34,13.50
2016,04,18,08,35,13.50
2016,04,18,08,36,13.60
2016,04,18,08,37,13.60
2016,04,18,08,38,13.70
2016,04,18,08,39,13.70
2016,04,18,08,40,13.70
2016,04,18,08,41,13.80
2016,04,18,08,42,13.80
2016,04,18,08,43,13.80
2016,04,18,08,44,13.90
2016,04,18,08,45,13.90
2016,04,18,08,46,14.00
2016,04,18,08,47,14.00
2016,04,18,08,48,14.10
2016,04,18,08,49,14.10
2016,04,18,08,50,14.10
2016,04,18,08,51,14.10
2016,04,18,08,52,14.20
2016,04,18,08,53,14.20
2016,04,18,08,54,14.20
2016,04,18,08,55,14.20
2016,04,18,08,56,14.20
2016,04,18,08,57,14.20
2016,04,18,08,58,14.20
2016,04,18,08,59,14.20
2016,04,18,09,00,14.20
2016,04,18,09,01,14.30
2016,04,18,09,02,14.30
2016,04,18,09,03,14.30
2016,04,18,09,04,14.30
2016,04,18,09,05,14.30
2016,04,18,09,06,14.40
2016,04,18,09,07,14.40
2016,04,18,09,08,14.40
2016,04,18,09,09,14.50
2016,04,18,09,10,14.50
2016,04,18,09,11,14.50
2016,04,18,09,12,14.50
2016,04,18,09,13,14.60
2016,04,18,09,14,14.60
2016,04,18,09,15,14.60
2016,04,18,09,16,14.70
2016,04,18,09,17,14.70
2016,04,18,09,18,14.80
2016,04,18,09,19,14.80
2016,04,18,09,20,14.90
2016,04,18,09,21,15.00
2016,04,18,09,22,15.00
2016,04,18,09,23,15.10
2016,04,18,09,24,15.10
2016,04,18,09,25,15.20
2016,04,18,09,26,15.20
2016,04,18,09,27,15.30
2016,04,18,09,28,15.30
2016,04,18,09,29,15.40
2016,04,18,09,30,15.50
2016,04,18,09,31,15.60
2016,04,18,09,32,15.70
2016,04,18,09,33,15.80
2016,04,18,09,34,15.90
2016,04,18,09,35,15.90
2016,04,18,09,36,16.00
2016,04,18,09,37,16.10
2016,04,18,09,38,16.20
2016,04,18,09,39,16.20
2016,04,18,09,40,16.20
2016,04,18,09,41,16.30
2016,04,18,09,42,16.30
2016,04,18,09,43,16.30
2016,04,18,09,44,16.30
2016,04,18,09,45,16.30
2016,04,18,09,46,16.40
2016,04,18,09,47,16.50
2016,04,18,09,48,16.60
2016,04,18,09,49,16.60
2016,04,18,09,50,16.60
2016,04,18,09,51,16.70
2016,04,18,09,52,16.70
2016,04,18,09,53,16.70
2016,04,18,09,54,16.70
2016,04,18,09,55,16.80
2016,04,18,09,56,16.90
2016,04,18,09,57,16.90
2016,04,18,09,58,17.00
2016,04,18,09,59,17.10
2016,04,18,10,00,17.20
2016,04,18,10,01,17.20
2016,04,18,10,02,17.20
2016,04,18,10,03,17.30
2016,04,18,10,04,17.40
2016,04,18,10,05,17.50
2016,04,18,10,06,17.50
2016,04,18,10,07,17.50
2016,04,18,10,08,17.50
2016,04,18,10,09,17.50
2016,04,18,10,10,17.50
2016,04,18,10,11,17.50
2016,04,18,10,12,17.50
2016,04,18,10,13,17.60
2016,04,18,10,14,17.60
2016,04,18,10,15,17.60
2016,04,18,10,16,17.70
2016,04,18,10,17,17.70
2016,04,18,10,18,17.70
2016,04,18,10,19,17.80
2016,04,18,10,20,17.80
2016,04,18,10,21,17.90
2016,04,18,10,22,17.90
2016,04,18,10,23,18.00
2016,04,18,10,24,18.00
2016,04,18,10,25,18.10
2016,04,18,10,26,18.10
2016,04,18,10,27,18.20
2016,04,18,10,28,18.20
2016,04,18,10,29,18.30
2016,04,18,10,30,18.30
2016,04,18,10,31,18.30
2016,04,18,10,32,18.40
2016,04,18,10,33,18.40
2016,04,18,10,34,18.40
2016,04,18,10,35,18.40
2016,04,18,10,36,18.40
2016,04,18,10,37,18.40
2016,04,18,10,38,18.40
2016,04,18,10,39,18.40
2016,04,18,10,40,18.40
2016,04,18,10,41,18.50
2016,04,18,10,42,18.50
2016,04,18,10,43,18.50
2016,04,18,10,44,18.50
2016,04,18,10,45,18.60
2016,04,18,10,46,18.50
2016,04,18,10,47,18.50
2016,04,18,10,48,18.60
2016,04,18,10,49,18.60
2016,04,18,10,50,18.60
2016,04,18,10,51,18.70
2016,04,18,10,52,18.80
2016,04,18,10,53,18.90
2016,04,18,10,54,19.00
2016,04,18,10,55,19.00
2016,04,18,10,56,19.00
2016,04,18,10,57,19.00
2016,04,18,10,58,19.00
2016,04,18,10,59,19.00
2016,04,18,11,00,19.00
2016,04,18,11,01,19.00
2016,04,18,11,02,19.10
2016,04,18,11,03,19.10
2016,04,18,11,04,19.30
2016,04,18,11,05,19.30
2016,04,18,11,06,19.30
2016,04,18,11,07,19.30
2016,04,18,11,08,19.30
2016,04,18,11,09,19.40
2016,04,18,11,10,19.40
2016,04,18,11,11,19.40
2016,04,18,11,12,19.50
2016,04,18,11,13,19.50
2016,04,18,11,14,19.60
2016,04,18,11,15,19.70
2016,04,18,11,16,19.80
2016,04,18,11,17,19.80
2016,04,18,11,18,19.80
2016,04,18,11,19,19.90
2016,04,18,11,20,20.00
2016,04,18,11,21,20.00
2016,04,18,11,22,20.00
2016,04,18,11,23,20.10
2016,04,18,11,24,20.10
2016,04,18,11,25,20.10
2016,04,18,11,26,20.10
2016,04,18,11,27,20.10
2016,04,18,11,28,20.20
2016,04,18,11,29,20.20
2016,04,18,11,30,20.10
2016,04,18,11,31,20.10
2016,04,18,11,32,20.10
2016,04,18,11,33,20.10
2016,04,18,11,34,20.20
2016,04,18,11,35,20.20
2016,04,18,11,36,20.20
2016,04,18,11,37,20.30
2016,04,18,11,38,20.30
2016,04,18,11,39,20.30
2016,04,18,11,40,20.30
2016,04,18,11,41,20.40
2016,04,18,11,42,20.50
2016,04,18,11,43,20.60
2016,04,18,11,44,20.60
2016,04,18,11,45,20.70
2016,04,18,11,46,20.80
2016,04,18,11,47,20.80
2016,04,18,11,48,20.80
2016,04,18,11,49,20.90
2016,04,18,11,50,20.90
2016,04,18,11,51,20.80
2016,04,18,11,52,20.80
2016,04,18,11,53,20.80
2016,04,18,11,54,20.80
2016,04,18,11,55,20.80
2016,04,18,11,56,20.90
2016,04,18,11,57,21.00
2016,04,18,11,58,21.00
2016,04,18,11,59,21.00
2016,04,18,12,00,21.10
2016,04,18,12,01,21.20
2016,04,18,12,02,21.20
2016,04,18,12,03,21.30
2016,04,18,12,04,21.30
2016,04,18,12,05,21.40
2016,04,18,12,06,21.40
2016,04,18,12,07,21.50
2016,04,18,12,08,21.60
2016,04,18,12,09,21.50
2016,04,18,12,10,21.50
2016,04,18,12,11,21.60
2016,04,18,12,12,21.60
2016,04,18,12,13,21.60
2016,04,18,12,14,21.70
2016,04,18,12,15,21.80
2016,04,18,12,16,21.80
2016,04,18,12,17,21.90
2016,04,18,12,18,22.00
2016,04,18,12,19,22.10
2016,04,18,12,20,22.10
2016,04,18,12,21,22.10
2016,04,18,12,22,22.10
2016,04,18,12,23,22.20
2016,04,18,12,24,22.20
2016,04,18,12,25,22.30
2016,04,18,12,26,22.30
2016,04,18,12,27,22.30
2016,04,18,12,28,22.40
2016,04,18,12,29,22.50
2016,04,18,12,30,22.60
2016,04,18,12,31,22.70
2016,04,18,12,32,22.80
2016,04,18,12,33,22.90
2016,04,18,12,34,22.90
2016,04,18,12,35,23.00
2016,04,18,12,36,23.10
2016,04,18,12,37,23.10
2016,04,18,12,38,23.10
2016,04,18,12,39,23.10
2016,04,18,12,40,23.00
2016,04,18,12,41,23.00
2016,04,18,12,42,22.90
2016,04,18,12,43,22.80
2016,04,18,12,44,22.70
2016,04,18,12,45,22.60
2016,04,18,12,46,22.60
2016,04,18,12,47,22.60
2016,04,18,12,48,22.70
2016,04,18,12,49,22.70
2016,04,18,12,50,22.80
2016,04,18,12,51,22.90
2016,04,18,12,52,23.00
2016,04,18,12,53,23.10
2016,04,18,12,54,23.20
2016,04,18,12,55,23.30
2016,04,18,12,56,23.50
2016,04,18,12,57,23.50
2016,04,18,12,58,23.60
2016,04,18,12,59,23.60
2016,04,18,13,00,23.50
2016,04,18,13,01,23.40
2016,04,18,13,02,23.50
2016,04,18,13,03,23.60
2016,04,18,13,04,23.70
2016,04,18,13,05,23.80
2016,04,18,13,06,23.90
2016,04,18,13,07,23.90
2016,04,18,13,08,23.90
2016,04,18,13,09,23.90
2016,04,18,13,10,23.90
2016,04,18,13,11,23.90
2016,04,18,13,12,24.00
2016,04,18,13,13,24.10
2016,04,18,13,14,24.20
2016,04,18,13,15,24.40
2016,04,18,13,16,24.60
2016,04,18,13,17,24.70
2016,04,18,13,18,24.60
2016,04,18,13,19,24.60
2016,04,18,13,20,24.60
2016,04,18,13,21,24.70
2016,04,18,13,22,24.80
2016,04,18,13,23,24.90
2016,04,18,13,24,24.90
2016,04,18,13,25,24.90
2016,04,18,13,26,24.80
2016,04,18,13,27,24.70
2016,04,18,13,28,24.50
2016,04,18,13,29,24.40
2016,04,18,13,30,24.30
2016,04,18,13,31,24.30
2016,04,18,13,32,24.20
2016,04,18,13,33,24.00
2016,04,18,13,34,23.90
2016,04,18,13,35,23.80
2016,04,18,13,36,23.70
2016,04,18,13,37,23.60
2016,04,18,13,38,23.60
2016,04,18,13,39,23.50
2016,04,18,13,40,23.50
2016,04,18,13,41,23.40
2016,04,18,13,42,23.30
2016,04,18,13,43,23.20
2016,04,18,13,44,23.20
2016,04,18,13,45,23.30
2016,04,18,13,46,23.30
2016,04,18,13,47,23.30
2016,04,18,13,48,23.40
2016,04,18,13,49,23.50
2016,04,18,13,50,23.60
2016,04,18,13,51,23.60
2016,04,18,13,52,23.70
2016,04,18,13,53,23.90
2016,04,18,13,54,24.00
2016,04,18,13,55,24.00
2016,04,18,13,56,24.00
2016,04,18,13,57,24.00
2016,04,18,13,58,24.00
2016,04,18,13,59,24.00
2016,04,18,14,00,24.10
2016,04,18,14,01,24.10
2016,04,18,14,02,24.20
2016,04,18,14,03,24.30
2016,04,18,14,04,24.40
2016,04,18,14,05,24.50
2016,04,18,14,06,24.60
2016,04,18,14,07,24.70
2016,04,18,14,08,24.80
2016,04,18,14,09,24.80
2016,04,18,14,10,25.00
2016,04,18,14,11,25.20
2016,04,18,14,12,25.30
2016,04,18,14,13,25.30
2016,04,18,14,14,25.50
2016,04,18,14,15,25.70
2016,04,18,14,16,25.80
2016,04,18,14,17,25.80
2016,04,18,14,18,25.60
2016,04,18,14,19,25.60
2016,04,18,14,20,25.60
2016,04,18,14,21,25.70
2016,04,18,14,22,25.70
2016,04,18,14,23,25.70
2016,04,18,14,24,25.70
2016,04,18,14,25,25.70
2016,04,18,14,26,25.60
2016,04,18,14,27,25.50
2016,04,18,14,28,25.40
2016,04,18,14,29,25.30
2016,04,18,14,30,25.40
2016,04,18,14,31,25.40
2016,04,18,14,32,25.50
2016,04,18,14,33,25.50
2016,04,18,14,34,25.50
2016,04,18,14,35,25.40
2016,04,18,14,36,25.50
2016,04,18,14,37,25.60
2016,04,18,14,38,25.60
2016,04,18,14,39,25.60
2016,04,18,14,40,25.60
2016,04,18,14,41,25.60
2016,04,18,14,42,25.50
2016,04,18,14,43,25.40
2016,04,18,14,44,25.50
2016,04,18,14,45,25.50
2016,04,18,14,46,25.60
2016,04,18,14,47,25.60
2016,04,18,14,48,25.60
2016,04,18,14,49,25.60
2016,04,18,14,50,25.60
2016,04,18,14,51,25.70
2016,04,18,14,52,25.80
2016,04,18,14,53,25.80
2016,04,18,14,54,25.80
2016,04,18,14,55,25.70
2016,04,18,14,56,25.70
2016,04,18,14,57,25.60
2016,04,18,14,58,25.60
2016,04,18,14,59,25.60
2016,04,18,15,00,25.60
2016,04,18,15,01,25.60
2016,04,18,15,02,25.60
2016,04,18,15,03,25.60
2016,04,18,15,04,25.60
2016,04,18,15,05,25.60
2016,04,18,15,06,25.70
2016,04,18,15,07,25.70
2016,04,18,15,08,25.70
2016,04,18,15,09,25.70
2016,04,18,15,10,25.80
2016,04,18,15,11,25.80
2016,04,18,15,12,25.80
2016,04,18,15,13,25.80
2016,04,18,15,14,25.80
2016,04,18,15,15,25.80
2016,04,18,15,16,25.90
2016,04,18,15,17,25.90
2016,04,18,15,18,25.90
2016,04,18,15,19,25.90
2016,04,18,15,20,25.90
2016,04,18,15,21,25.90
2016,04,18,15,22,25.90
2016,04,18,15,23,25.80
2016,04,18,15,24,25.80
2016,04,18,15,25,25.80
2016,04,18,15,26,25.80
2016,04,18,15,27,25.70
2016,04,18,15,28,25.60
2016,04,18,15,29,25.50
2016,04,18,15,30,25.40
2016,04,18,15,31,25.40
2016,04,18,15,32,25.40
2016,04,18,15,33,25.50
2016,04,18,15,34,25.50
2016,04,18,15,35,25.60
2016,04,18,15,36,25.60
2016,04,18,15,37,25.70
2016,04,18,15,38,25.80
2016,04,18,15,39,25.80
2016,04,18,15,40,25.80
2016,04,18,15,41,25.80
2016,04,18,15,42,25.80
2016,04,18,15,43,25.60
2016,04,18,15,44,25.50
2016,04,18,15,45,25.40
2016,04,18,15,46,25.40
2016,04,18,15,47,25.40
2016,04,18,15,48,25.40
2016,04,18,15,49,25.40
2016,04,18,15,50,25.40
2016,04,18,15,51,25.50
2016,04,18,15,52,25.50
2016,04,18,15,53,25.50
2016,04,18,15,54,25.40
2016,04,18,15,55,25.40
2016,04,18,15,56,25.30
2016,04,18,15,57,25.30
2016,04,18,15,58,25.30
2016,04,18,15,59,25.30
2016,04,18,16,00,25.30
2016,04,18,16,01,25.30
2016,04,18,16,02,25.30
2016,04,18,16,03,25.30
2016,04,18,16,04,25.30
2016,04,18,16,05,25.40
2016,04,18,16,06,25.30
2016,04,18,16,07,25.30
2016,04,18,16,08,25.30
2016,04,18,16,09,25.20
2016,04,18,16,10,25.20
2016,04,18,16,11,25.20
2016,04,18,16,12,25.20
2016,04,18,16,13,25.20
2016,04,18,16,14,25.30
2016,04,18,16,15,25.40
2016,04,18,16,16,25.50
2016,04,18,16,17,25.50
2016,04,18,16,18,25.60
2016,04,18,16,19,25.80
2016,04,18,16,20,25.80
2016,04,18,16,21,25.90
2016,04,18,16,22,25.90
2016,04,18,16,23,25.90
2016,04,18,16,24,25.80
2016,04,18,16,25,25.70
2016,04,18,16,26,25.70
2016,04,18,16,27,25.70
2016,04,18,16,28,25.70
2016,04,18,16,29,25.70
2016,04,18,16,30,25.70
2016,04,18,16,31,25.70
2016,04,18,16,32,25.70
2016,04,18,16,33,25.70
2016,04,18,16,34,25.80
2016,04,18,16,35,25.90
2016,04,18,16,36,25.90
2016,04,18,16,37,25.90
2016,04,18,16,38,25.90
2016,04,18,16,39,25.90
2016,04,18,16,40,25.80
2016,04,18,16,41,25.80
2016,04,18,16,42,25.80
2016,04,18,16,43,25.80
2016,04,18,16,44,25.80
2016,04,18,16,45,25.80
2016,04,18,16,46,25.80
2016,04,18,16,47,25.90
2016,04,18,16,48,25.90
2016,04,18,16,49,26.00
2016,04,18,16,50,26.00
2016,04,18,16,51,26.10
2016,04,18,16,52,26.20
2016,04,18,16,53,26.30
2016,04,18,16,54,26.50
2016,04,18,16,55,26.50
2016,04,18,16,56,26.60
2016,04,18,16,57,26.60
2016,04,18,16,58,26.70
2016,04,18,16,59,26.70
2016,04,18,17,00,26.70
2016,04,18,17,01,26.80
2016,04,18,17,02,26.80
2016,04,18,17,03,26.80
2016,04,18,17,04,26.90
2016,04,18,17,05,26.90
2016,04,18,17,06,27.00
2016,04,18,17,07,27.00
2016,04,18,17,08,27.10
2016,04,18,17,09,27.10
2016,04,18,17,10,27.10
2016,04,18,17,11,27.00
2016,04,18,17,12,26.90
2016,04,18,17,13,26.80
2016,04,18,17,14,26.70
2016,04,18,17,15,26.70
2016,04,18,17,16,26.70
2016,04,18,17,17,26.70
2016,04,18,17,18,26.70
2016,04,18,17,19,26.70